PST,Max TemperatureF,Mean TemperatureF,Min TemperatureF,Max Dew PointF,MeanDew PointF,Min DewpointF,Max Humidity, Mean Humidity, Min Humidity, Max Sea Level PressureIn, Mean Sea Level PressureIn, Min Sea Level PressureIn, Max VisibilityMiles, Mean VisibilityMiles, Min VisibilityMiles, Max Wind SpeedMPH, Mean Wind SpeedMPH, Max Gust SpeedMPH,PrecipitationIn, CloudCover, Events, WindDirDegrees
2013-11-1,65,48,30,44,38,31,100,69,37,30.28,30.16,29.93,10,10,10,13,2,16,0.00,0,,170
2013-11-2,60,52,43,46,39,33,100,72,43,29.89,29.77,29.67,10,9,4,39,11,53,0.14,3,Rain,235
2013-11-3,56,47,38,35,32,26,79,56,32,30.05,29.98,29.90,10,10,10,26,17,36,0.00,4,,240
2013-11-4,51,40,29,33,27,20,85,57,29,30.21,30.16,30.06,10,10,8,8,2,9,T,3,Snow,81
2013-11-5,46,40,33,39,36,29,92,81,70,30.26,30.18,30.14,10,10,9,13,4,14,0.07,7,Rain,335
2013-11-6,48,40,32,40,37,32,100,86,71,30.40,30.34,30.25,10,9,5,13,5,16,0.05,7,Rain,317
2013-11-7,52,47,41,43,40,36,93,75,56,30.23,30.00,29.85,10,9,6,25,7,33,0.09,6,Rain,266
2013-11-8,56,47,37,40,39,35,76,66,55,30.16,30.09,29.97,10,10,10,30,17,39,0.00,0,,229
2013-11-9,49,42,34,40,38,34,100,86,71,30.21,30.16,30.14,10,10,10,14,4,17,0.00,4,,328
2013-11-10,54,46,38,43,40,38,100,82,64,30.27,30.19,30.14,10,10,4,7,1,9,0.00,2,,342
2013-11-11,51,41,31,42,38,31,100,86,71,30.38,30.31,30.25,10,8,2,9,2,15,0.00,2,,19
2013-11-12,54,44,33,44,40,33,100,83,66,30.39,30.31,30.25,10,7,2,12,2,13,T,3,Rain,32
2013-11-13,60,45,29,44,34,28,100,76,51,30.43,30.37,30.27,10,4,0,9,4,28,0.00,2,Fog,346
2013-11-14,48,38,27,40,34,27,100,86,71,30.26,30.08,29.99,10,7,0,9,2,10,0.00,1,Fog,345
2013-11-15,51,38,25,37,34,25,100,76,52,29.99,29.74,29.38,10,10,5,28,10,36,0.01,4,Rain,221
2013-11-16,56,49,41,37,31,24,71,51,30,29.75,29.52,29.31,10,10,10,28,12,35,0.00,2,,244
2013-11-17,59,52,44,38,36,34,76,60,43,29.94,29.88,29.77,10,10,10,30,18,40,0.00,4,,223
2013-11-18,58,54,50,44,38,34,77,62,47,29.92,29.83,29.69,10,10,10,25,13,32,0.04,3,Rain,194
2013-11-19,61,51,41,46,38,28,67,57,46,29.90,29.70,29.63,10,10,10,28,12,35,T,1,,258
2013-11-20,41,28,14,29,13,4,74,49,23,30.52,30.30,29.94,10,10,10,20,8,23,0.00,1,,332
2013-11-21,37,24,10,15,12,7,88,64,40,30.78,30.70,30.54,10,10,10,8,1,9,0.00,0,,334
2013-11-22,39,24,9,20,15,7,92,70,47,30.87,30.79,30.71,10,10,10,9,3,12,0.00,0,,340
2013-11-23,36,24,11,21,16,10,92,74,56,30.71,30.59,30.45,10,10,9,7,3,9,0.00,0,,350
2013-11-24,36,25,13,23,17,11,96,76,56,30.47,30.42,30.39,10,8,3,6,1,7,0.00,1,,327
2013-11-25,40,29,17,26,21,16,92,71,50,30.54,30.49,30.46,10,6,4,6,1,7,0.00,0,,337
2013-11-26,37,26,15,27,20,12,100,80,59,30.45,30.37,30.29,8,4,0,7,1,8,0.00,2,Fog,342
2013-11-27,38,29,19,28,22,18,100,82,64,30.28,30.24,30.19,9,4,0,6,2,9,0.00,1,Fog,335
2013-11-28,33,25,16,28,21,14,100,93,85,30.31,30.26,30.22,5,2,0,7,2,7,0.00,3,Fog,322
2013-11-29,30,26,21,28,23,19,100,94,88,30.38,30.33,30.28,5,1,0,8,2,9,0.00,8,Fog,302
2013-11-30,35,32,29,30,29,27,100,91,82,30.40,30.35,30.23,5,3,0,8,1,9,T,8,Fog,339